Whitefield, NH

9:03 AM EST on November 22, 2017 (GMT -0500)
Mount Washington Regional

Weather History for KHIE - March, 2014

Change the Weather History Date:

Friday, March 7, 2014

  Actual Average Record
Temperature  
Mean Temperature 16 °F -  
Max Temperature 42 °F 31 °F 57 °F (2012)
Min Temperature -11 °F 7 °F -33 °F (2007)
Degree Days  
Heating Degree Days 50    
Moisture  
Dew Point -7 °F    
Average Humidity 48    
Maximum Humidity 79    
Minimum Humidity 10    
Precipitation  
Precipitation 0.00 in - - ()
Sea Level Pressure  
Sea Level Pressure 30.22 in    
Wind  
Wind Speed 1 mph (WNW)    
Max Wind Speed 9 mph    
Max Gust Speed -    
Visibility 10 miles    
Events      
Averages and records for this station are not official NWS values.
T = Trace of Precipitation, MM = Missing Value Source: NWS Daily Summary

Daily Weather History Graph

Daily Weather History Graph

Search for Another Location

Airport or City:

Trip Planner

Search our weather history database for the weather conditions in past years. The results will help you decide how hot, cold, wet, or windy it might be!

Date:

Astronomy

Mar. 07, 2014 Rise Set
Actual Time 6:12 AM EST 5:42 PM EST
Civil Twilight 5:44 AM EST 6:11 PM EST
Nautical Twilight 5:10 AM EST 6:44 PM EST
Astronomical Twilight 4:36 AM EST 7:18 PM EST
Moon 9:49 AM EST (3/7) No Moon Set
Length of Visible Light 12h 27m
Length of Day
11h 29m
Waxing Crescent, 42% of the Moon is Illuminated
Mar 7
Waxing Crescent
Mar 8
First Quarter
Mar 16
Full
Mar 23
Last Quarter
Mar 30
New

Hourly Weather History & Observations

Time (EST) Temp. Windchill Dew Point Humidity Pressure Visibility Wind Dir Wind Speed Gust Speed Precip Events Conditions
12:52 AM -7.1 °F - -11.9 °F 79% 30.48 in 9.0 mi Calm Calm - N/A   Clear
1:52 AM -8.0 °F - -13.0 °F 79% 30.47 in 10.0 mi Calm Calm - N/A   Clear
2:52 AM -8.0 °F - -14.1 °F 75% 30.44 in 10.0 mi Calm Calm - N/A   Clear
3:52 AM -11.0 °F - -17.0 °F 75% 30.43 in 10.0 mi Calm Calm - N/A   Clear
4:52 AM -11.0 °F - -17.0 °F 75% 30.40 in 10.0 mi Calm Calm - N/A   Clear
5:52 AM -11.9 °F - -18.0 °F 74% 30.39 in 10.0 mi Calm Calm - N/A   Clear
6:52 AM -11.9 °F - -18.0 °F 74% 30.40 in 10.0 mi Calm Calm - N/A   Clear
7:52 AM -4.0 °F - -9.9 °F 76% 30.39 in 10.0 mi Calm Calm - N/A   Clear
8:52 AM 9.0 °F - -5.1 °F 53% 30.36 in 7.0 mi Calm Calm - N/A   Clear
9:52 AM 21.0 °F - -6.0 °F 30% 30.32 in 9.0 mi Calm Calm - N/A   Clear
10:52 AM 28.0 °F - -11.0 °F 18% 30.28 in 10.0 mi Calm Calm - N/A   Clear
11:52 AM 34.0 °F - -7.1 °F 17% 30.22 in 10.0 mi Calm Calm - N/A   Clear
12:52 PM 37.9 °F 33.5 °F -8.0 °F 14% 30.17 in 10.0 mi North 5.8 mph - N/A   Clear
1:52 PM 42.1 °F 40.2 °F -11.9 °F 10% 30.13 in 10.0 mi Variable 3.5 mph - N/A   Clear
2:52 PM 41.0 °F 35.2 °F -13.0 °F 10% 30.12 in 10.0 mi WSW 9.2 mph - N/A   Clear
3:52 PM 41.0 °F 38.0 °F -11.0 °F 11% 30.10 in 10.0 mi Variable 4.6 mph - N/A   Clear
4:52 PM 39.9 °F 36.7 °F -9.0 °F 12% 30.06 in 10.0 mi SSW 4.6 mph - N/A   Clear
5:52 PM 33.1 °F 30.0 °F -2.9 °F 21% 30.06 in 10.0 mi WNW 3.5 mph - N/A   Clear
6:52 PM 25.0 °F - 6.1 °F 45% 30.06 in 10.0 mi Calm Calm - N/A   Clear
7:52 PM 23.0 °F 18.4 °F 6.1 °F 48% 30.05 in 10.0 mi ENE 3.5 mph - N/A   Clear
8:52 PM 19.0 °F - 7.0 °F 59% 30.02 in 10.0 mi Calm Calm - N/A   Clear
9:52 PM 17.1 °F - 6.1 °F 62% 30.00 in 10.0 mi Calm Calm - N/A   Clear
10:52 PM 15.1 °F - 6.1 °F 68% 29.97 in 10.0 mi Calm Calm - N/A   Clear
11:52 PM 12.9 °F - 6.1 °F 74% 29.95 in 10.0 mi Calm Calm - N/A   Clear